QPF
0.10 0.14 0.18 0.19 0.19 0.24 0.30 0.33 0.26 0.20 0.17 0.13 0.13 0.10 0.08 0.05 0.03 0.03 0.04 0.02 0.02 0.03 0.04 0.03 0.02 0.02 0.01 0.02 0.03 0.05 0.05 0.06 0.08 0.07 0.05 0.04 0.04 0.03 0.01 0.01 0.01 0.01 0.01
0.07 0.11 0.15 0.17 0.17 0.20 0.25 0.29 0.29 0.23 0.21 0.18 0.14 0.11 0.08 0.06 0.03 0.02 0.02 0.02 0.01 0.01 0.03 0.04 0.02 0.03 0.02 0.01 0.02 0.05 0.03 0.05 0.06 0.05 0.04 0.02 0.02 0.02 0.01 0.00 0.01 0.01 0.01
0.03 0.05 0.08 0.14 0.17 0.16 0.19 0.25 0.29 0.28 0.20 0.18 0.15 0.11 0.08 0.06 0.05 0.04 0.03 0.02 0.02 0.01 0.01 0.02 0.03 0.02 0.02 0.03 0.03 0.04 0.03 0.04 0.03 0.03 0.03 0.02 0.01 0.01 0.01 0.01 0.01 0.01 0.01
0.02 0.03 0.03 0.07 0.12 0.17 0.20 0.23 0.28 0.32 0.31 0.26 0.23 0.17 0.11 0.08 0.05 0.03 0.04 0.04 0.03 0.02 0.01 0.01 0.02 0.02 0.02 0.03 0.04 0.03 0.03 0.02 0.02 0.03 0.03 0.02 0.02 0.01 0.01 0.01 0.01 0.01 0.01
0.01 0.02 0.03 0.04 0.07 0.12 0.16 0.17 0.22 0.26 0.34 0.32 0.26 0.20 0.13 0.10 0.07 0.03 0.02 0.03 0.04 0.03 0.02 0.01 0.01 0.01 0.02 0.02 0.03 0.04 0.03 0.03 0.02 0.02 0.02 0.01 0.01 0.01 0.01 0.01 0.00 0.00 0.00
0.02 0.03 0.03 0.03 0.05 0.08 0.10 0.13 0.19 0.22 0.24 0.30 0.30 0.24 0.17 0.10 0.08 0.05 0.03 0.02 0.04 0.06 0.04 0.03 0.01 0.00 0.01 0.01 0.03 0.05 0.04 0.03 0.02 0.02 0.01 0.01 0.01 0.01 0.01 0.01 0.00 0.00 0.01
0.02 0.03 0.03 0.03 0.05 0.07 0.09 0.11 0.16 0.19 0.20 0.25 0.29 0.26 0.19 0.13 0.11 0.05 0.03 0.02 0.03 0.04 0.06 0.06 0.02 0.01 0.01 0.00 0.01 0.03 0.03 0.03 0.02 0.02 0.02 0.01 0.01 0.01 0.01 0.01 0.01 0.01 0.01
0.03 0.02 0.02 0.04 0.05 0.07 0.08 0.10 0.13 0.15 0.17 0.24 0.23 0.24 0.20 0.17 0.11 0.05 0.04 0.03 0.03 0.03 0.04 0.07 0.05 0.03 0.01 0.01 0.00 0.00 0.01 0.03 0.03 0.02 0.02 0.02 0.01 0.01 0.01 0.01 0.01 0.01 0.01
0.04 0.03 0.03 0.03 0.04 0.06 0.07 0.08 0.10 0.12 0.14 0.19 0.22 0.23 0.19 0.16 0.16 0.10 0.05 0.04 0.03 0.03 0.03 0.05 0.06 0.06 0.04 0.03 0.01 0.00 0.00 0.01 0.03 0.03 0.02 0.02 0.01 0.01 0.01 0.01 0.01 0.01 0.01
0.02 0.03 0.04 0.04 0.05 0.06 0.07 0.08 0.09 0.11 0.13 0.15 0.18 0.19 0.18 0.20 0.21 0.17 0.11 0.07 0.06 0.05 0.04 0.05 0.04 0.05 0.05 0.05 0.04 0.01 0.00 0.00 0.01 0.03 0.03 0.03 0.02 0.02 0.02 0.01 0.01 0.01 0.01
0.02 0.02 0.02 0.03 0.04 0.05 0.06 0.07 0.09 0.10 0.11 0.14 0.16 0.15 0.16 0.17 0.15 0.16 0.15 0.13 0.11 0.06 0.05 0.06 0.05 0.05 0.04 0.04 0.06 0.02 0.00 0.00 0.00 0.01 0.02 0.03 0.03 0.03 0.02 0.01 0.01 0.01 0.01
0.02 0.02 0.02 0.03 0.02 0.03 0.05 0.06 0.06 0.07 0.11 0.12 0.15 0.16 0.16 0.14 0.11 0.11 0.12 0.14 0.14 0.10 0.07 0.05 0.06 0.07 0.06 0.05 0.05 0.05 0.02 0.00 0.00 0.00 0.01 0.03 0.03 0.03 0.02 0.01 0.01 0.01 0.01
0.01 0.01 0.01 0.02 0.03 0.03 0.04 0.06 0.06 0.06 0.09 0.11 0.12 0.12 0.13 0.11 0.13 0.14 0.13 0.13 0.13 0.13 0.13 0.10 0.06 0.07 0.07 0.06 0.08 0.09 0.04 0.01 0.00 0.00 0.00 0.01 0.01 0.02 0.03 0.03 0.02 0.02 0.02
0.01 0.01 0.01 0.01 0.02 0.03 0.03 0.06 0.08 0.07 0.09 0.10 0.10 0.13 0.12 0.09 0.10 0.11 0.11 0.12 0.11 0.12 0.14 0.13 0.09 0.07 0.07 0.07 0.12 0.13 0.04 0.03 0.01 0.00 0.00 0.00 0.01 0.01 0.02 0.04 0.04 0.04 0.04
0.00 0.00 0.01 0.01 0.01 0.02 0.03 0.04 0.06 0.07 0.10 0.10 0.11 0.12 0.13 0.12 0.10 0.10 0.11 0.12 0.12 0.11 0.10 0.11 0.12 0.09 0.08 0.10 0.20 0.13 0.05 0.03 0.02 0.01 0.00 0.00 0.01 0.01 0.01 0.02 0.03 0.04 0.03
0.00 0.00 0.00 0.01 0.01 0.02 0.03 0.03 0.04 0.06 0.09 0.10 0.12 0.13 0.14 0.14 0.14 0.12 0.11 0.12 0.12 0.11 0.10 0.10 0.13 0.11 0.13 0.14 0.19 0.11 0.09 0.11 0.06 0.02 0.01 0.01 0.01 0.01 0.01 0.01 0.01 0.01 0.01
0.01 0.01 0.01 0.02 0.02 0.03 0.03 0.03 0.04 0.05 0.06 0.07 0.11 0.14 0.14 0.16 0.16 0.15 0.14 0.13 0.12 0.12 0.09 0.09 0.12 0.13 0.16 0.19 0.17 0.13 0.14 0.13 0.07 0.03 0.02 0.01 0.01 0.01 0.01 0.01 0.01 0.01 0.01
0.00 0.00 0.01 0.02 0.02 0.02 0.02 0.03 0.04 0.04 0.05 0.06 0.07 0.09 0.11 0.16 0.16 0.14 0.13 0.12 0.11 0.10 0.10 0.09 0.09 0.09 0.11 0.15 0.16 0.17 0.16 0.13 0.09 0.07 0.04 0.02 0.02 0.01 0.01 0.01 0.01 0.01 0.01
0.00 0.00 0.01 0.01 0.01 0.01 0.01 0.03 0.04 0.04 0.05 0.06 0.07 0.07 0.08 0.13 0.16 0.15 0.13 0.11 0.11 0.11 0.12 0.10 0.09 0.09 0.09 0.12 0.15 0.16 0.16 0.16 0.12 0.10 0.09 0.06 0.04 0.04 0.03 0.03 0.03 0.03 0.03
0.00 0.00 0.01 0.01 0.01 0.01 0.01 0.02 0.03 0.04 0.04 0.05 0.06 0.07 0.08 0.09 0.12 0.13 0.13 0.12 0.13 0.14 0.14 0.13 0.11 0.09 0.08 0.10 0.12 0.13 0.14 0.14 0.14 0.11 0.11 0.10 0.09 0.08 0.08 0.07 0.06 0.05 0.05
0.00 0.00 0.00 0.01 0.01 0.01 0.01 0.01 0.01 0.01 0.03 0.04 0.05 0.05 0.06 0.07 0.07 0.09 0.11 0.13 0.13 0.14 0.15 0.15 0.13 0.11 0.10 0.11 0.10 0.10 0.12 0.14 0.17 0.16 0.14 0.11 0.10 0.08 0.07 0.07 0.07 0.07 0.06
0.00 0.00 0.00 0.01 0.02 0.01 0.00 0.00 0.01 0.01 0.02 0.04 0.06 0.06 0.05 0.06 0.07 0.06 0.06 0.08 0.10 0.11 0.11 0.11 0.12 0.13 0.11 0.10 0.09 0.11 0.12 0.15 0.20 0.18 0.16 0.16 0.14 0.12 0.09 0.08 0.09 0.09 0.08
0.00 0.00 0.01 0.01 0.03 0.02 0.00 0.00 0.01 0.01 0.02 0.05 0.07 0.06 0.04 0.04 0.07 0.09 0.08 0.07 0.08 0.09 0.10 0.11 0.10 0.11 0.13 0.13 0.13 0.13 0.13 0.13 0.14 0.17 0.18 0.21 0.21 0.18 0.14 0.13 0.14 0.13 0.12
0.01 0.01 0.01 0.01 0.02 0.02 0.00 0.00 0.01 0.02 0.05 0.07 0.06 0.05 0.05 0.05 0.07 0.09 0.09 0.09 0.09 0.08 0.07 0.08 0.10 0.11 0.12 0.14 0.16 0.19 0.20 0.20 0.20 0.22 0.23 0.25 0.23 0.22 0.19 0.17 0.18 0.15 0.13
0.00 0.00 0.00 0.01 0.01 0.01 0.01 0.00 0.00 0.03 0.06 0.09 0.06 0.04 0.05 0.06 0.05 0.05 0.06 0.09 0.10 0.12 0.11 0.09 0.11 0.13 0.15 0.17 0.19 0.22 0.27 0.28 0.28 0.27 0.22 0.21 0.22 0.21 0.23 0.23 0.20 0.17 0.14
0.00 0.00 0.00 0.01 0.00 0.00 0.00 0.00 0.00 0.03 0.06 0.07 0.06 0.05 0.06 0.04 0.02 0.03 0.05 0.08 0.11 0.15 0.15 0.11 0.11 0.12 0.14 0.16 0.20 0.21 0.23 0.25 0.25 0.27 0.24 0.18 0.18 0.20 0.26 0.25 0.21 0.17 0.15
MSLP
1013.18 1013.16 1013.11 1013.06 1013.06 1013.14 1013.30 1013.52 1013.76 1013.95 1014.04 1014.00 1013.82 1013.53 1013.18 1012.86 1012.63 1012.56 1012.67 1012.95 1013.35 1013.84 1014.33 1014.77 1015.13 1015.41 1015.60 1015.75 1015.87 1016.00 1016.15 1016.34 1016.56 1016.80 1017.07 1017.34 1017.62 1017.89 1018.16 1018.42 1018.66 1018.87 1019.04
1013.03 1012.94 1012.83 1012.74 1012.72 1012.80 1012.98 1013.23 1013.50 1013.74 1013.87 1013.85 1013.70 1013.41 1013.06 1012.72 1012.45 1012.33 1012.39 1012.62 1013.01 1013.48 1014.00 1014.50 1014.94 1015.30 1015.58 1015.80 1015.97 1016.13 1016.30 1016.48 1016.69 1016.92 1017.17 1017.44 1017.72 1018.01 1018.30 1018.58 1018.84 1019.06 1019.24
1012.92 1012.78 1012.64 1012.53 1012.50 1012.58 1012.76 1013.03 1013.32 1013.57 1013.73 1013.75 1013.61 1013.35 1013.00 1012.64 1012.34 1012.17 1012.17 1012.33 1012.66 1013.10 1013.61 1014.13 1014.62 1015.05 1015.41 1015.71 1015.95 1016.17 1016.36 1016.56 1016.76 1016.98 1017.21 1017.47 1017.76 1018.05 1018.36 1018.66 1018.95 1019.19 1019.39
1012.88 1012.71 1012.54 1012.43 1012.40 1012.47 1012.65 1012.91 1013.19 1013.45 1013.61 1013.65 1013.53 1013.29 1012.96 1012.60 1012.29 1012.07 1012.00 1012.09 1012.33 1012.70 1013.16 1013.66 1014.17 1014.64 1015.07 1015.44 1015.77 1016.04 1016.29 1016.51 1016.73 1016.95 1017.18 1017.44 1017.72 1018.02 1018.34 1018.65 1018.96 1019.22 1019.44
1012.88 1012.70 1012.54 1012.43 1012.40 1012.47 1012.62 1012.85 1013.10 1013.32 1013.47 1013.51 1013.41 1013.21 1012.91 1012.58 1012.26 1012.02 1011.89 1011.90 1012.05 1012.33 1012.70 1013.15 1013.63 1014.11 1014.57 1015.01 1015.40 1015.75 1016.05 1016.33 1016.58 1016.83 1017.07 1017.33 1017.61 1017.92 1018.24 1018.56 1018.88 1019.16 1019.40
1012.92 1012.75 1012.60 1012.51 1012.48 1012.53 1012.64 1012.81 1013.00 1013.17 1013.28 1013.31 1013.24 1013.07 1012.83 1012.55 1012.26 1012.02 1011.86 1011.80 1011.85 1012.02 1012.28 1012.63 1013.04 1013.50 1013.97 1014.43 1014.88 1015.30 1015.68 1016.03 1016.34 1016.62 1016.90 1017.17 1017.46 1017.77 1018.09 1018.41 1018.73 1019.02 1019.28
1012.98 1012.83 1012.70 1012.62 1012.59 1012.61 1012.68 1012.78 1012.89 1012.99 1013.05 1013.06 1013.01 1012.89 1012.72 1012.52 1012.30 1012.09 1011.92 1011.80 1011.77 1011.81 1011.96 1012.18 1012.50 1012.88 1013.32 1013.80 1014.28 1014.76 1015.21 1015.64 1016.02 1016.36 1016.68 1016.99 1017.30 1017.61 1017.92 1018.24 1018.56 1018.86 1019.13
1013.06 1012.92 1012.81 1012.74 1012.70 1012.69 1012.70 1012.72 1012.74 1012.77 1012.78 1012.77 1012.74 1012.69 1012.61 1012.49 1012.36 1012.21 1012.05 1011.91 1011.80 1011.74 1011.75 1011.85 1012.04 1012.33 1012.71 1013.16 1013.66 1014.18 1014.69 1015.19 1015.65 1016.07 1016.45 1016.80 1017.13 1017.46 1017.78 1018.09 1018.40 1018.69 1018.97
1013.13 1013.00 1012.90 1012.84 1012.79 1012.74 1012.69 1012.63 1012.58 1012.53 1012.49 1012.47 1012.47 1012.47 1012.48 1012.47 1012.43 1012.35 1012.23 1012.09 1011.92 1011.77 1011.66 1011.63 1011.70 1011.88 1012.18 1012.58 1013.06 1013.60 1014.16 1014.71 1015.24 1015.74 1016.18 1016.59 1016.97 1017.31 1017.65 1017.96 1018.27 1018.56 1018.84
1013.18 1013.04 1012.95 1012.89 1012.82 1012.74 1012.64 1012.52 1012.40 1012.28 1012.21 1012.17 1012.19 1012.25 1012.33 1012.41 1012.47 1012.46 1012.39 1012.25 1012.06 1011.85 1011.65 1011.50 1011.45 1011.53 1011.73 1012.07 1012.51 1013.04 1013.62 1014.22 1014.80 1015.36 1015.87 1016.34 1016.76 1017.15 1017.50 1017.83 1018.15 1018.45 1018.74
1013.18 1013.04 1012.95 1012.87 1012.79 1012.69 1012.55 1012.39 1012.21 1012.05 1011.93 1011.88 1011.91 1012.00 1012.13 1012.28 1012.41 1012.46 1012.44 1012.32 1012.12 1011.87 1011.61 1011.39 1011.25 1011.24 1011.36 1011.62 1012.01 1012.51 1013.08 1013.69 1014.31 1014.91 1015.48 1016.00 1016.48 1016.91 1017.31 1017.67 1018.00 1018.32 1018.63
1013.12 1012.97 1012.87 1012.79 1012.71 1012.59 1012.43 1012.23 1012.02 1011.82 1011.68 1011.60 1011.61 1011.70 1011.85 1012.03 1012.19 1012.28 1012.29 1012.20 1012.01 1011.76 1011.48 1011.22 1011.04 1010.96 1011.01 1011.21 1011.55 1012.00 1012.54 1013.13 1013.76 1014.38 1014.98 1015.55 1016.08 1016.57 1017.01 1017.42 1017.80 1018.14 1018.48
1013.00 1012.84 1012.74 1012.66 1012.57 1012.45 1012.28 1012.06 1011.83 1011.60 1011.42 1011.31 1011.28 1011.34 1011.47 1011.62 1011.77 1011.87 1011.89 1011.82 1011.67 1011.44 1011.19 1010.94 1010.75 1010.65 1010.67 1010.82 1011.10 1011.50 1011.99 1012.55 1013.15 1013.77 1014.40 1015.00 1015.57 1016.12 1016.61 1017.08 1017.50 1017.89 1018.26
1012.82 1012.68 1012.57 1012.49 1012.40 1012.27 1012.10 1011.89 1011.64 1011.39 1011.17 1011.01 1010.92 1010.91 1010.97 1011.06 1011.16 1011.23 1011.25 1011.20 1011.08 1010.91 1010.71 1010.52 1010.37 1010.30 1010.32 1010.45 1010.69 1011.04 1011.47 1011.98 1012.54 1013.14 1013.76 1014.38 1014.98 1015.57 1016.12 1016.64 1017.12 1017.56 1017.97
1012.63 1012.49 1012.39 1012.31 1012.22 1012.10 1011.93 1011.71 1011.46 1011.18 1010.92 1010.70 1010.54 1010.44 1010.39 1010.39 1010.41 1010.43 1010.42 1010.38 1010.30 1010.20 1010.09 1009.98 1009.92 1009.91 1009.97 1010.11 1010.33 1010.63 1011.01 1011.46 1011.97 1012.53 1013.13 1013.75 1014.38 1014.99 1015.59 1016.15 1016.68 1017.17 1017.62
1012.46 1012.33 1012.23 1012.15 1012.06 1011.94 1011.77 1011.55 1011.29 1011.00 1010.70 1010.42 1010.17 1009.96 1009.80 1009.69 1009.61 1009.55 1009.51 1009.47 1009.43 1009.40 1009.39 1009.40 1009.44 1009.51 1009.64 1009.81 1010.03 1010.31 1010.65 1011.04 1011.50 1012.02 1012.59 1013.19 1013.82 1014.45 1015.08 1015.67 1016.23 1016.76 1017.24
1012.33 1012.22 1012.12 1012.03 1011.93 1011.80 1011.63 1011.42 1011.15 1010.84 1010.51 1010.17 1009.85 1009.54 1009.28 1009.05 1008.87 1008.73 1008.64 1008.60 1008.59 1008.63 1008.71 1008.83 1008.98 1009.15 1009.35 1009.57 1009.81 1010.08 1010.39 1010.75 1011.16 1011.64 1012.17 1012.76 1013.38 1014.01 1014.64 1015.25 1015.83 1016.37 1016.88
1012.28 1012.16 1012.05 1011.94 1011.83 1011.69 1011.52 1011.30 1011.03 1010.72 1010.36 1009.99 1009.60 1009.22 1008.87 1008.54 1008.27 1008.07 1007.93 1007.87 1007.89 1007.98 1008.13 1008.34 1008.58 1008.83 1009.10 1009.36 1009.63 1009.90 1010.20 1010.54 1010.92 1011.37 1011.88 1012.45 1013.06 1013.68 1014.31 1014.92 1015.50 1016.04 1016.55
1012.26 1012.13 1012.01 1011.88 1011.74 1011.58 1011.40 1011.18 1010.91 1010.60 1010.24 1009.85 1009.43 1009.01 1008.59 1008.21 1007.87 1007.61 1007.43 1007.35 1007.37 1007.49 1007.68 1007.94 1008.24 1008.55 1008.85 1009.15 1009.44 1009.72 1010.01 1010.34 1010.71 1011.15 1011.65 1012.21 1012.81 1013.44 1014.06 1014.66 1015.23 1015.76 1016.26
1012.24 1012.10 1011.95 1011.79 1011.62 1011.45 1011.25 1011.02 1010.76 1010.46 1010.11 1009.73 1009.31 1008.87 1008.44 1008.02 1007.65 1007.35 1007.14 1007.04 1007.05 1007.16 1007.36 1007.62 1007.93 1008.25 1008.56 1008.86 1009.15 1009.43 1009.72 1010.05 1010.44 1010.88 1011.40 1011.97 1012.57 1013.20 1013.83 1014.43 1014.99 1015.52 1016.01
1012.18 1012.01 1011.83 1011.64 1011.45 1011.24 1011.03 1010.80 1010.55 1010.26 1009.94 1009.58 1009.19 1008.77 1008.34 1007.93 1007.55 1007.24 1007.01 1006.89 1006.87 1006.95 1007.11 1007.34 1007.61 1007.89 1008.17 1008.44 1008.70 1008.97 1009.26 1009.60 1010.00 1010.47 1011.01 1011.61 1012.25 1012.91 1013.55 1014.16 1014.74 1015.27 1015.77
1012.01 1011.82 1011.62 1011.41 1011.18 1010.96 1010.73 1010.50 1010.26 1009.99 1009.70 1009.38 1009.02 1008.64 1008.25 1007.86 1007.50 1007.19 1006.96 1006.81 1006.75 1006.78 1006.88 1007.03 1007.22 1007.43 1007.63 1007.84 1008.05 1008.29 1008.57 1008.92 1009.34 1009.85 1010.44 1011.09 1011.78 1012.48 1013.17 1013.83 1014.43 1015.00 1015.53
1011.71 1011.51 1011.29 1011.07 1010.83 1010.60 1010.36 1010.13 1009.90 1009.65 1009.38 1009.10 1008.78 1008.45 1008.10 1007.75 1007.42 1007.13 1006.89 1006.72 1006.62 1006.59 1006.61 1006.67 1006.75 1006.85 1006.96 1007.08 1007.23 1007.42 1007.68 1008.03 1008.48 1009.03 1009.67 1010.39 1011.15 1011.92 1012.68 1013.40 1014.07 1014.69 1015.27
1011.26 1011.07 1010.87 1010.65 1010.41 1010.18 1009.95 1009.73 1009.50 1009.27 1009.02 1008.76 1008.48 1008.18 1007.87 1007.56 1007.27 1007.00 1006.76 1006.58 1006.44 1006.34 1006.28 1006.24 1006.21 1006.20 1006.20 1006.22 1006.29 1006.43 1006.66 1007.00 1007.47 1008.07 1008.77 1009.56 1010.40 1011.25 1012.10 1012.90 1013.65 1014.34 1015.00
1010.70 1010.54 1010.37 1010.17 1009.97 1009.76 1009.55 1009.34 1009.12 1008.90 1008.66 1008.41 1008.15 1007.88 1007.59 1007.31 1007.04 1006.78 1006.56 1006.36 1006.19 1006.04 1005.90 1005.78 1005.66 1005.54 1005.44 1005.37 1005.37 1005.45 1005.65 1005.98 1006.47 1007.10 1007.85 1008.70 1009.62 1010.56 1011.49 1012.38 1013.21 1013.99 1014.73
1010.07 1009.96 1009.83 1009.69 1009.54 1009.38 1009.20 1009.01 1008.81 1008.60 1008.37 1008.12 1007.86 1007.59 1007.31 1007.04 1006.77 1006.53 1006.30 1006.09 1005.89 1005.71 1005.53 1005.34 1005.15 1004.95 1004.78 1004.65 1004.58 1004.62 1004.79 1005.11 1005.60 1006.25 1007.04 1007.94 1008.92 1009.92 1010.93 1011.89 1012.81 1013.67 1014.47
Thickness
5728 5731 5733 5735 5737 5739 5740 5741 5742 5743 5746 5749 5753 5757 5760 5762 5764 5763 5761 5760 5759 5758 5757 5756 5755 5755 5755 5756 5756 5756 5756 5756 5756 5756 5755 5755 5754 5754 5753 5752 5752 5751 5750
5721 5723 5726 5729 5732 5734 5736 5738 5738 5739 5742 5745 5749 5753 5757 5760 5762 5763 5760 5759 5759 5758 5757 5756 5756 5755 5755 5755 5756 5756 5756 5755 5755 5755 5754 5754 5753 5753 5752 5751 5750 5750 5749
5714 5717 5720 5723 5727 5730 5731 5732 5734 5735 5738 5741 5745 5749 5753 5757 5759 5762 5761 5759 5758 5758 5757 5757 5756 5756 5755 5755 5755 5755 5755 5755 5755 5754 5754 5753 5752 5752 5751 5750 5749 5749 5748
5707 5710 5713 5716 5721 5723 5726 5727 5728 5729 5733 5736 5739 5744 5748 5752 5756 5760 5761 5761 5760 5758 5758 5757 5757 5756 5756 5755 5755 5755 5755 5754 5754 5754 5753 5752 5752 5751 5750 5749 5749 5748 5747
5699 5702 5705 5709 5714 5717 5719 5722 5724 5725 5727 5730 5734 5738 5742 5746 5752 5757 5760 5762 5762 5761 5759 5758 5758 5757 5756 5756 5755 5755 5755 5754 5753 5753 5752 5752 5751 5750 5749 5749 5748 5747 5746
5691 5694 5698 5702 5706 5709 5712 5715 5718 5721 5723 5726 5729 5733 5737 5742 5747 5751 5756 5760 5762 5762 5761 5760 5758 5757 5756 5756 5755 5755 5754 5754 5753 5752 5752 5751 5750 5749 5748 5747 5746 5745 5744
5684 5687 5690 5694 5698 5701 5705 5709 5712 5714 5717 5721 5720 5722 5728 5736 5740 5745 5752 5756 5759 5761 5762 5760 5759 5758 5757 5756 5756 5755 5754 5754 5753 5752 5751 5750 5749 5748 5747 5746 5745 5744 5743
5678 5681 5684 5687 5691 5694 5698 5702 5705 5707 5711 5715 5714 5712 5713 5721 5731 5741 5746 5750 5755 5758 5759 5760 5760 5759 5759 5757 5756 5755 5754 5754 5753 5751 5750 5749 5748 5747 5746 5745 5744 5743 5742
5675 5676 5678 5681 5685 5688 5691 5695 5699 5701 5702 5708 5711 5709 5708 5710 5720 5731 5739 5745 5749 5753 5756 5758 5759 5759 5760 5758 5757 5755 5754 5753 5752 5751 5750 5749 5747 5746 5745 5744 5742 5741 5740
5672 5673 5674 5677 5679 5682 5685 5689 5694 5696 5697 5698 5703 5708 5712 5715 5712 5715 5727 5737 5743 5747 5750 5754 5756 5758 5759 5759 5758 5757 5755 5753 5752 5750 5749 5748 5746 5745 5744 5742 5741 5740 5738
5669 5670 5671 5672 5674 5677 5680 5683 5686 5690 5693 5694 5696 5700 5703 5707 5711 5710 5713 5723 5732 5740 5745 5749 5751 5754 5757 5759 5758 5756 5754 5752 5751 5749 5748 5747 5745 5744 5742 5741 5739 5738 5736
5666 5667 5667 5668 5670 5672 5675 5678 5681 5684 5687 5689 5692 5694 5696 5699 5702 5705 5708 5714 5720 5730 5738 5743 5747 5750 5752 5755 5757 5756 5753 5751 5749 5748 5746 5745 5744 5742 5741 5739 5737 5736 5734
5662 5663 5664 5664 5666 5668 5671 5673 5676 5678 5681 5684 5686 5689 5693 5697 5700 5702 5703 5707 5711 5719 5727 5735 5742 5746 5748 5750 5753 5753 5750 5748 5747 5746 5744 5743 5742 5740 5739 5737 5735 5733 5732
5660 5661 5661 5662 5663 5665 5667 5668 5670 5672 5676 5678 5681 5684 5687 5692 5695 5698 5700 5701 5701 5707 5715 5724 5734 5740 5743 5746 5749 5747 5746 5745 5744 5743 5742 5740 5739 5738 5736 5734 5733 5731 5729
5660 5660 5660 5660 5661 5662 5662 5663 5664 5666 5669 5672 5675 5678 5681 5685 5690 5693 5696 5698 5697 5697 5704 5716 5723 5733 5737 5740 5742 5741 5742 5742 5741 5740 5739 5737 5736 5735 5733 5731 5729 5727 5725
5660 5659 5659 5658 5658 5658 5658 5658 5658 5660 5662 5665 5668 5671 5675 5679 5682 5686 5690 5693 5696 5696 5699 5710 5716 5724 5728 5732 5734 5735 5737 5737 5737 5736 5735 5734 5732 5731 5729 5728 5726 5724 5722
5660 5659 5658 5656 5655 5654 5653 5653 5652 5654 5656 5658 5661 5664 5668 5672 5675 5679 5683 5686 5689 5692 5693 5701 5709 5715 5719 5722 5725 5728 5731 5731 5730 5731 5731 5729 5728 5727 5725 5724 5722 5720 5718
5661 5659 5657 5654 5652 5650 5649 5647 5646 5648 5649 5651 5654 5657 5661 5666 5669 5673 5676 5679 5682 5686 5688 5691 5698 5704 5710 5715 5718 5720 5723 5724 5725 5725 5725 5724 5724 5722 5721 5719 5718 5716 5713
5661 5658 5656 5652 5650 5647 5645 5643 5641 5642 5643 5645 5648 5650 5654 5658 5661 5665 5669 5672 5676 5681 5683 5685 5689 5695 5701 5706 5708 5711 5714 5716 5718 5719 5718 5718 5718 5717 5716 5714 5713 5711 5708
5660 5657 5654 5651 5648 5645 5642 5638 5636 5636 5638 5640 5643 5646 5649 5652 5654 5658 5662 5665 5669 5672 5675 5678 5681 5686 5691 5697 5699 5701 5703 5707 5710 5712 5711 5711 5711 5711 5710 5709 5708 5706 5703
5660 5657 5653 5649 5646 5642 5639 5634 5632 5632 5632 5634 5637 5641 5644 5647 5650 5652 5655 5658 5662 5665 5668 5671 5674 5678 5683 5687 5691 5695 5696 5698 5701 5704 5703 5704 5704 5704 5703 5702 5702 5700 5698
5660 5656 5652 5649 5645 5642 5637 5634 5630 5628 5628 5630 5632 5635 5639 5642 5645 5648 5651 5654 5657 5659 5661 5665 5668 5672 5677 5682 5685 5688 5688 5688 5690 5696 5697 5696 5697 5697 5697 5697 5696 5694 5692
5660 5657 5653 5649 5645 5641 5637 5634 5630 5627 5627 5628 5630 5632 5635 5638 5640 5642 5645 5649 5652 5656 5659 5661 5663 5668 5672 5677 5680 5680 5682 5683 5686 5690 5689 5687 5689 5690 5691 5691 5690 5688 5686
5661 5657 5654 5651 5647 5643 5639 5634 5631 5628 5628 5629 5630 5631 5631 5632 5634 5635 5638 5642 5646 5651 5655 5658 5661 5665 5668 5672 5675 5677 5677 5677 5678 5680 5683 5680 5680 5681 5682 5683 5682 5681 5680
5662 5659 5656 5652 5648 5645 5641 5636 5632 5629 5628 5629 5630 5629 5629 5629 5630 5631 5633 5636 5640 5645 5650 5654 5658 5661 5663 5666 5668 5668 5668 5668 5668 5670 5673 5674 5673 5672 5672 5673 5673 5673 5672
5664 5661 5658 5655 5652 5648 5644 5638 5634 5630 5628 5628 5628 5628 5627 5626 5627 5628 5629 5631 5634 5639 5643 5647 5651 5654 5657 5660 5662 5664 5665 5665 5664 5663 5666 5667 5666 5665 5662 5663 5664 5664 5663